User: anonymous   Login
Location: Darlington Observatory
(36.4817°N, 105.8156°W)
Time: 12:43:41
(UTC-06:00)
Language:

MOS 1 - Orbit

View from above orbital plane
View from above orbital plane
View from above satellite
View from above satellite

Ground track
Ground track

The orbit data is extracted from the following two-line orbital elements,

1 17527U 87018A   16239.88295984  .00000332  00000-0  24586-3 0  9996
2 17527  99.2713 243.0508 0008766  25.7445  37.3297 14.02460318508206
Epoch (UTC): 26 August 2016 21:11:27
Eccentricity: 0.0008766
inclination: 99.2713°
perigee height: 879 km
apogee height: 891 km
right ascension of ascending node: 243.0508°
argument of perigee: 25.7445°
revolutions per day: 14.02460318
mean anomaly at epoch: 37.3297°
orbit number at epoch: 50820

The dashed part of the orbit path shows where the satellite is in the earth's shadow,  

DLR